This is the latest recevied weather packets stored in our database for station/object W4GAP. If no packets are shown the sender has not sent any weather packets the latest 10 day(s).
| Time | Temp. | Humidity | Pressure | Rain* | Wind** | Luminosity | Snow |
|---|---|---|---|---|---|---|---|
| 1777864730 | 12.78° C | 65% | 1015.4 hPa | 0 mm | - | 0 W/m² | - |
| 1777864428 | 12.78° C | 64% | 1015.6 hPa | 0 mm | - | 0 W/m² | - |
| 1777864124 | 12.78° C | 67% | 1015.4 hPa | 0 mm | - | 0 W/m² | - |
| 1777863822 | 13.33° C | 65% | 1015.6 hPa | 0 mm | - | 0 W/m² | - |
| 1777863517 | 13.33° C | 64% | 1015.5 hPa | 0 mm | - | 0 W/m² | - |
| 1777863215 | 13.33° C | 63% | 1015.4 hPa | 0 mm | - | 0 W/m² | - |
| 1777862911 | 13.33° C | 62% | 1015.3 hPa | 0 mm | - | 0 W/m² | - |
| 1777862608 | 13.33° C | 64% | 1015.4 hPa | 0 mm | - | 0 W/m² | - |
| 1777862304 | 13.33° C | 65% | 1015.2 hPa | 0 mm | - | 0 W/m² | - |
| 1777862001 | 13.33° C | 63% | 1015.2 hPa | 0 mm | - | 0 W/m² | - |
| 1777861697 | 13.33° C | 62% | 1015.1 hPa | 0 mm | - | 0 W/m² | - |
| 1777861394 | 13.89° C | 61% | 1015.4 hPa | 0 mm | - | 0 W/m² | - |
| 1777861090 | 13.89° C | 61% | 1015.1 hPa | 0 mm | - | 0 W/m² | - |
| 1777860788 | 13.89° C | 60% | 1015.1 hPa | 0 mm | - | 0 W/m² | - |
| 1777860485 | 13.89° C | 59% | 1015 hPa | 0 mm | - | 0 W/m² | - |
| 1777860182 | 13.89° C | 59% | 1015.1 hPa | 0 mm | - | 0 W/m² | - |
| 1777859877 | 13.89° C | 58% | 1014.8 hPa | 0 mm | - | 0 W/m² | - |
| 1777859574 | 13.89° C | 58% | 1015 hPa | 0 mm | - | 0 W/m² | - |
| 1777859270 | 14.44° C | 58% | 1014.8 hPa | 0 mm | - | 0 W/m² | - |
| 1777858966 | 14.44° C | 58% | 1014.7 hPa | 0 mm | - | 0 W/m² | - |
| 1777858664 | 14.44° C | 59% | 1014.4 hPa | 0 mm | - | 0 W/m² | - |
| 1777858362 | 14.44° C | 56% | 1014.6 hPa | 0 mm | - | 0 W/m² | - |
| 1777858058 | 15° C | 55% | 1014.5 hPa | 0 mm | - | 0 W/m² | - |
| 1777857756 | 15° C | 55% | 1014.5 hPa | 0 mm | - | 0 W/m² | - |
| 1777857452 | 15° C | 55% | 1014.4 hPa | 0 mm | - | 0 W/m² | - |
* Rain latest hour (hover to see other rain measurements)
** Current wind speed in m/s (hover to see current wind gust speed)